Voltar ao catálogo

FENGYUN 1C DEB

AtivoPO
NORAD 30998·DEBRIS·🇨🇳 China

Lançado May 10, 1999 de Taiyuan Satellite Launch Center

Loading…

Próximas Passagens (próximas 24 horas)

TLE

AtualizadoSource: Space-Track

Época: Sep 14, 2026, 12:53 UTC

1 30998U 99025BCQ 26257.53722560  .00005340  00000-0  13224-2 0  9992
2 30998  98.8254 359.1624 0012572  89.2911  42.0912 14.52340696 11734

Acompanhe FENGYUN 1C DEB em tempo real com AllMySat

Download on the App Store